TimeAST,TemperatureF,Dew PointF,Humidity,Sea Level PressureIn,VisibilityMPH,Wind Direction,Wind SpeedMPH,Gust SpeedMPH,PrecipitationIn,Events,Conditions,WindDirDegrees,DateUTC
12:00 AM,82.4,77.0,84,29.86,6.2,ENE,13.8,-,N/A,,Scattered Clouds,70,2013-11-09 04:00:00
1:00 AM,80.6,77.0,89,29.86,6.2,East,11.5,-,N/A,,Scattered Clouds,80,2013-11-09 05:00:00
2:00 AM,82.4,77.0,84,29.83,6.2,East,13.8,-,N/A,,Scattered Clouds,80,2013-11-09 06:00:00
3:00 AM,80.6,77.0,89,29.83,6.2,ENE,13.8,-,N/A,,Scattered Clouds,70,2013-11-09 07:00:00
4:00 AM,82.4,77.0,84,29.83,6.2,East,17.3,-,N/A,,Scattered Clouds,80,2013-11-09 08:00:00
5:00 AM,82.4,77.0,84,29.83,6.2,East,15.0,-,N/A,,Scattered Clouds,80,2013-11-09 09:00:00
6:00 AM,82.4,77.0,84,29.83,6.2,East,15.0,-,N/A,,Scattered Clouds,80,2013-11-09 10:00:00
7:00 AM,82.4,77.0,84,29.86,6.2,East,13.8,-,N/A,,Scattered Clouds,80,2013-11-09 11:00:00
8:00 AM,82.4,77.0,84,29.89,-9999.0,East,17.3,-,N/A,,Unknown,80,2013-11-09 12:00:00
9:00 AM,84.2,77.0,79,29.92,-9999.0,East,16.1,-,N/A,,Unknown,90,2013-11-09 13:00:00
10:00 AM,86.0,78.8,79,29.92,6.2,East,17.3,-,N/A,,Scattered Clouds,80,2013-11-09 14:00:00
11:00 AM,86.0,77.0,74,29.92,6.2,East,20.7,-,N/A,,Scattered Clouds,80,2013-11-09 15:00:00
12:00 PM,86.0,77.0,74,29.89,-9999.0,East,18.4,-,N/A,,Unknown,90,2013-11-09 16:00:00
12:55 PM,86.0,77.0,74,29.89,6.2,East,21.9,-,N/A,,Scattered Clouds,80,2013-11-09 16:55:00
1:55 PM,87.8,77.0,70,29.86,-9999.0,East,19.6,-,N/A,,Unknown,80,2013-11-09 17:55:00
2:55 PM,86.0,77.0,74,29.83,6.2,East,21.9,-,N/A,,Scattered Clouds,80,2013-11-09 18:55:00
3:55 PM,84.2,77.0,79,29.83,-9999.0,East,18.4,-,N/A,,Unknown,90,2013-11-09 19:55:00
4:55 PM,84.2,77.0,79,29.83,6.2,ENE,18.4,-,N/A,,Partly Cloudy,70,2013-11-09 20:55:00
6:55 PM,82.4,77.0,84,29.83,-9999.0,ENE,16.1,-,N/A,,Unknown,70,2013-11-09 22:55:00
7:55 PM,82.4,77.0,84,29.86,6.2,ENE,17.3,-,N/A,,Partly Cloudy,70,2013-11-09 23:55:00
8:55 PM,82.4,77.0,84,29.89,6.2,ENE,16.1,-,N/A,,Partly Cloudy,70,2013-11-10 00:55:00
9:55 PM,82.4,77.0,84,29.89,-9999.0,ENE,15.0,-,N/A,,Unknown,70,2013-11-10 01:55:00